N8TWM-13 Weather Reports


Display with metric or nautical units.
time (UTC)temp
F
wind
direction
speed
MPH
gust
MPH
rain 1hr
in
rain 24hr
in
rain mn
in
humidity
%
barometer
mb
20260502130526 37 264 0.0 0.0 0.00 0.02 0.02 91 1016.9
20260502123509 36 265 0.0 0.0 0.00 0.02 0.02 91 1016.4
20260502123005 36 261 0.0 0.0 0.00 0.02 0.02 91 1016.5
20260502122502 35 298 0.0 0.0 0.00 0.02 0.02 91 1016.9
20260502122000 35 255 0.0 0.0 0.00 0.02 0.02 91 1016.5
20260502121456 35 264 0.0 0.0 0.00 0.02 0.02 91 1016.5
20260502120954 35 287 0.0 0.0 0.00 0.02 0.02 90 1016.5
20260502120450 35 259 0.0 0.0 0.00 0.02 0.02 90 1016.6
20260502115445 35 289 0.0 1.0 0.00 0.02 0.02 90 1016.5
20260502114941 35 259 0.0 0.0 0.00 0.02 0.02 90 1016.6
20260502114438 35 261 0.0 0.0 0.00 0.02 0.02 90 1016.4
20260502113935 35 262 0.0 0.0 0.00 0.02 0.02 90 1016.6
20260502113432 34 262 0.0 0.0 0.00 0.02 0.02 90 1016.4
20260502112931 34 263 0.0 0.0 0.00 0.02 0.02 90 1016.6
20260502112428 34 256 0.0 0.0 0.00 0.02 0.02 90 1016.6
20260502111925 33 254 0.0 0.0 0.00 0.02 0.02 90 1016.1
20260502111422 34 255 0.0 0.0 0.00 0.02 0.02 90 1016.2
20260502110920 34 253 0.0 0.0 0.00 0.02 0.02 90 1016.1
20260502110417 34 252 0.0 0.0 0.00 0.02 0.02 90 1016.1
20260502105914 33 254 0.0 0.0 0.00 0.02 0.02 90 1016.2
20260502105412 33 266 0.0 0.0 0.00 0.02 0.02 91 1016.1
20260502104910 33 252 0.0 0.0 0.00 0.02 0.02 91 1016.1
20260502104407 33 255 0.0 0.0 0.00 0.02 0.02 91 1016.0
20260502103904 33 259 0.0 0.0 0.00 0.02 0.02 91 1016.2
20260502103402 33 254 0.0 0.0 0.00 0.02 0.02 91 1016.1
20260502102858 33 255 0.0 0.0 0.00 0.02 0.02 91 1016.1
20260502102355 33 250 0.0 0.0 0.00 0.02 0.02 91 1016.2
20260502101852 33 253 0.0 0.0 0.00 0.02 0.02 91 1016.3
20260502101350 33 259 0.0 0.0 0.00 0.02 0.02 92 1016.0
20260502100848 34 262 0.0 0.0 0.00 0.02 0.02 92 1016.1
20260502100347 34 257 0.0 0.0 0.00 0.02 0.02 92 1016.2
20260502091321 35 255 0.0 0.0 0.00 0.01 0.01 94 1015.9
20260502090819 35 255 0.0 0.0 0.00 0.01 0.01 94 1015.9
20260502090315 35 257 0.0 0.0 0.00 0.01 0.01 94 1015.8
20260502071211 38 252 0.0 0.0 0.00 0.01 0.01 95 1015.7
20260502070709 38 249 0.0 0.0 0.00 0.01 0.01 95 1015.5
20260502070206 38 254 0.0 0.0 0.00 0.01 0.01 95 1015.5
20260502065704 38 251 0.0 0.0 0.00 0.01 0.01 95 1015.6
20260502065202 38 255 0.0 0.0 0.00 0.01 0.01 95 1015.8
20260502064700 38 249 0.0 0.0 0.00 0.01 0.01 95 1015.6
20260502064157 39 276 0.0 0.0 0.00 0.01 0.01 95 1015.9
20260502063655 39 254 0.0 0.0 0.00 0.01 0.01 95 1015.7
20260502063153 38 259 0.0 0.0 0.00 0.01 0.01 95 1015.7
20260502062649 38 256 0.0 0.0 0.00 0.01 0.01 95 1015.9
20260502062147 38 255 0.0 0.0 0.00 0.01 0.01 95 1015.9
20260502061645 38 255 0.0 0.0 0.00 0.01 0.01 95 1015.9
20260502061143 38 255 0.0 0.0 0.00 0.01 0.01 95 1016.0
20260502060642 38 255 0.0 0.0 0.00 0.01 0.01 95 1015.8
20260502060140 38 255 0.0 0.0 0.00 0.01 0.01 95 1015.7
20260502055637 38 255 0.0 0.0 0.00 0.01 0.01 95 1016.0
20260502055135 38 255 0.0 0.0 0.00 0.01 0.01 95 1016.0
20260502054634 37 257 0.0 0.0 0.00 0.01 0.01 95 1016.2
20260502054131 38 257 0.0 0.0 0.00 0.01 0.01 95 1016.2
20260502053628 37 257 0.0 0.0 0.00 0.01 0.01 94 1016.2
20260502053125 37 257 0.0 0.0 0.00 0.01 0.01 94 1016.0
20260502052623 37 257 0.0 0.0 0.00 0.01 0.01 94 1016.3
20260502052121 37 257 0.0 0.0 0.00 0.01 0.01 94 1016.2
20260502051619 37 257 0.0 0.0 0.00 0.01 0.01 94 1016.1
20260502051117 37 257 0.0 0.0 0.00 0.01 0.01 94 1016.3
20260502050613 37 257 0.0 0.0 0.00 0.01 0.01 94 1016.3
20260502050110 38 258 0.0 0.0 0.00 0.01 0.01 94 1016.2
20260502045606 38 258 0.0 0.0 0.00 0.01 0.01 94 1016.3
20260502045104 37 258 0.0 0.0 0.00 0.01 0.01 93 1016.2
20260502044600 38 258 0.0 0.0 0.00 0.01 0.01 93 1016.0
20260502044057 38 258 0.0 0.0 0.00 0.01 0.01 93 1016.3
20260502043554 38 258 0.0 0.0 0.00 0.01 0.01 93 1016.3
20260502043050 38 258 0.0 0.0 0.00 0.01 0.01 93 1016.0
20260502042545 38 258 0.0 0.0 0.00 0.01 0.01 92 1016.3
20260502042043 39 258 0.0 0.0 0.07 0.01 0.01 92 1016.3
20260502041541 39 258 0.0 0.0 0.07 0.01 0.01 92 1016.2
20260502041037 39 258 0.0 0.0 0.00 0.00 0.00 91 1016.5
20260502040534 39 258 0.0 0.0 0.00 0.00 0.00 91 1016.5
20260502040031 39 258 0.0 0.0 0.00 0.42 0.42 91 1016.9
20260502035527 39 258 0.0 0.0 0.12 0.42 0.42 91 1016.5
20260502035025 39 259 0.0 0.0 0.28 0.42 0.42 91 1016.4
20260502034522 39 303 0.0 0.0 0.17 0.40 0.40 91 1016.9
20260502034021 39 296 1.0 2.0 0.00 0.37 0.37 91 1016.9
20260502033519 39 246 0.0 0.0 0.00 0.37 0.37 91 1016.8
20260502033016 39 239 0.0 0.0 0.00 0.37 0.37 91 1016.4
20260502032511 39 239 0.0 0.0 0.00 0.37 0.37 91 1016.6
20260502032009 38 239 0.0 0.0 0.00 0.37 0.37 91 1016.5
20260502031506 38 239 0.0 0.0 0.00 0.37 0.37 91 1016.2
20260502031004 38 239 0.0 0.0 0.00 0.37 0.37 90 1016.5
20260502030503 38 239 0.0 0.0 0.00 0.37 0.37 90 1016.4
20260502030000 38 239 0.0 0.0 0.00 0.37 0.37 90 1016.0
20260502025457 38 239 0.0 0.0 0.00 0.37 0.37 89 1016.0
20260502024955 39 238 0.0 0.0 0.00 0.37 0.37 89 1015.9
20260502024452 39 238 0.0 0.0 0.00 0.37 0.37 89 1016.1
20260502023950 39 238 0.0 0.0 0.00 0.37 0.37 88 1016.1
20260502023448 39 238 0.0 0.0 0.00 0.37 0.37 87 1016.0
20260502022945 40 238 0.0 0.0 0.00 0.37 0.37 87 1015.8
20260502022441 41 238 0.0 0.0 0.00 0.37 0.37 86 1016.1
20260502021938 41 238 0.0 0.0 0.00 0.37 0.37 86 1015.9
20260502021436 41 238 0.0 0.0 0.00 0.37 0.37 85 1016.0
20260502020933 41 238 0.0 0.0 0.00 0.37 0.37 85 1016.0
20260502020431 41 238 0.0 0.0 0.00 0.37 0.37 84 1016.1
20260502015927 41 233 0.0 0.0 0.00 0.37 0.37 84 1016.1
20260502015425 42 260 0.0 0.0 0.00 0.37 0.37 83 1016.2
20260502014921 42 267 0.0 0.0 0.00 0.37 0.37 83 1016.0
20260502014419 42 289 0.0 0.0 0.00 0.37 0.37 84 1016.2
20260502013915 42 266 0.0 0.0 0.00 0.37 0.37 85 1016.1
20260502013410 42 264 0.0 0.0 0.00 0.37 0.37 85 1016.0
20260502012907 42 264 0.0 0.0 0.00 0.37 0.37 85 1015.9
20260502012405 42 264 0.0 0.0 0.00 0.37 0.37 84 1015.6
20260502011902 42 264 0.0 0.0 0.00 0.37 0.37 84 1015.6
20260502011358 42 264 0.0 0.0 0.00 0.37 0.37 84 1015.5
20260502010855 42 264 0.0 0.0 0.00 0.37 0.37 84 1015.4
20260502010352 42 264 0.0 0.0 0.00 0.37 0.37 83 1015.4
20260502005848 42 264 0.0 0.0 0.00 0.37 0.37 83 1015.6
20260502005347 42 264 0.0 0.0 0.00 0.37 0.37 83 1015.5
20260502004844 42 264 0.0 0.0 0.00 0.37 0.37 83 1015.6
20260502004340 42 264 0.0 0.0 0.00 0.37 0.37 83 1015.3
20260502003838 42 264 0.0 0.0 0.00 0.37 0.37 83 1015.5
20260502003334 42 264 0.0 0.0 0.00 0.37 0.37 83 1015.5
20260502002831 42 264 0.0 0.0 0.00 0.37 0.37 83 1015.3
20260502002328 43 264 0.0 0.0 0.00 0.37 0.37 83 1015.4
20260502001825 42 264 0.0 0.0 0.00 0.37 0.37 83 1015.4
20260502001323 43 264 0.0 0.0 0.00 0.37 0.37 83 1015.2
20260502000820 43 264 0.0 0.0 0.00 0.37 0.37 82 1014.9
20260502000318 43 264 0.0 0.0 0.00 0.37 0.37 82 1015.1
20260501235814 43 266 0.0 0.0 0.00 0.37 0.37 82 1014.9
20260501235310 43 266 0.0 0.0 0.00 0.37 0.37 82 1014.8
20260501234805 43 266 0.0 0.0 0.00 0.37 0.37 81 1014.9
20260501234303 43 266 0.0 0.0 0.00 0.37 0.37 81 1014.7
20260501233801 43 270 0.0 0.0 0.00 0.37 0.37 80 1014.9
20260501233258 43 268 0.0 0.0 0.00 0.37 0.37 80 1014.6
20260501232754 43 274 0.0 0.0 0.00 0.37 0.37 80 1014.7
20260501232251 44 277 0.0 0.0 0.00 0.37 0.37 79 1014.5
20260501231749 44 266 0.0 0.0 0.00 0.37 0.37 79 1014.5
20260501231247 44 271 0.0 0.0 0.00 0.37 0.37 79 1014.5
20260501230745 44 275 0.0 0.0 0.00 0.37 0.37 79 1014.6
20260501230243 44 309 0.0 0.0 0.00 0.37 0.37 80 1014.6
20260501225740 44 272 0.0 0.0 0.00 0.37 0.37 80 1014.8
20260501225237 44 264 0.0 0.0 0.00 0.37 0.37 80 1014.8
20260501224733 44 268 0.0 0.0 0.00 0.37 0.37 79 1014.8
20260501224231 44 265 0.0 0.0 0.00 0.37 0.37 79 1014.9
20260501223727 44 263 0.0 0.0 0.00 0.37 0.37 79 1014.7
20260501223224 45 273 0.0 0.0 0.00 0.37 0.37 79 1015.0
20260501222720 45 329 0.0 0.0 0.00 0.37 0.37 78 1014.8
20260501222217 45 307 0.0 0.0 0.00 0.37 0.37 77 1014.8
20260501221714 45 262 0.0 0.0 0.00 0.37 0.37 77 1014.4
20260501221211 44 265 0.0 0.0 0.00 0.37 0.37 78 1014.6
20260501220709 45 334 0.0 0.0 0.00 0.37 0.37 78 1014.5
20260501220206 44 272 0.0 0.0 0.00 0.37 0.37 80 1014.4
20260501215703 44 296 0.0 1.0 0.00 0.37 0.37 79 1014.7
20260501215158 44 273 0.0 0.0 0.00 0.37 0.37 79 1014.3
20260501214653 43 279 0.0 0.0 0.00 0.37 0.37 80 1014.4
20260501214149 43 273 0.0 0.0 0.00 0.37 0.37 80 1014.4
20260501213646 44 295 2.0 6.0 0.00 0.37 0.37 80 1014.2
20260501213142 43 272 0.0 0.0 0.00 0.37 0.37 80 1014.4
20260501212638 43 5 1.0 6.0 0.00 0.37 0.37 80 1014.4
20260501212135 43 324 2.0 6.0 0.00 0.37 0.37 81 1014.4
20260501211632 43 258 0.0 0.0 0.00 0.37 0.37 82 1014.2
20260501211130 43 277 0.0 0.0 0.00 0.37 0.37 82 1014.3
20260501210626 42 320 0.0 0.0 0.00 0.37 0.37 84 1014.1
20260501210123 42 281 0.0 1.0 0.00 0.37 0.37 85 1014.2
20260501205619 42 274 0.0 0.0 0.00 0.37 0.37 87 1014.3
20260501205117 42 359 1.0 3.0 0.00 0.37 0.37 87 1014.0
20260501204613 42 323 0.0 1.0 0.00 0.37 0.37 88 1014.1
20260501204109 42 313 0.0 0.0 0.00 0.37 0.37 88 1013.8
20260501203606 42 3 0.0 0.0 0.00 0.37 0.37 89 1013.8
20260501203104 42 335 0.0 0.0 0.00 0.37 0.37 89 1014.0
20260501202600 42 270 0.0 0.0 0.00 0.37 0.37 89 1014.0
20260501202057 42 312 0.0 0.0 0.00 0.37 0.37 90 1013.7
20260501201554 41 337 0.0 0.0 0.00 0.37 0.37 90 1013.8
20260501201050 41 334 0.0 0.0 0.00 0.37 0.37 90 1013.5
20260501200548 42 330 1.0 2.0 0.00 0.37 0.37 91 1013.5
20260501200045 41 273 0.0 0.0 0.00 0.37 0.37 91 1013.3
20260501195542 42 272 0.0 0.0 0.00 0.37 0.37 91 1013.2
20260501195038 42 333 0.0 0.0 0.00 0.37 0.37 91 1013.2
20260501194533 42 336 0.0 0.0 0.00 0.37 0.37 91 1013.5
20260501194029 42 276 0.0 0.0 0.00 0.37 0.37 91 1013.0
20260501193527 41 279 0.0 0.0 0.00 0.37 0.37 92 1013.1
20260501193026 41 7 0.0 0.0 0.00 0.37 0.37 92 1013.1
20260501192522 41 270 0.0 0.0 0.07 0.37 0.37 92 1013.2
20260501192020 41 347 0.0 0.0 0.07 0.37 0.37 92 1013.0
20260501191517 41 268 0.0 0.0 0.00 0.36 0.36 92 1012.8
20260501191014 41 280 0.0 1.0 0.00 0.36 0.36 92 1013.1
20260501190509 41 287 0.0 0.0 0.00 0.36 0.36 92 1013.0
20260501190005 41 340 0.0 1.0 0.00 0.36 0.36 91 1013.0
20260501185501 42 1 4.0 10.0 0.05 0.36 0.36 91 1012.9
20260501184957 42 10 1.0 3.0 0.05 0.36 0.36 92 1012.8
20260501184454 41 287 0.0 0.0 0.00 0.35 0.35 92 1012.6
20260501183948 41 22 1.0 2.0 0.00 0.35 0.35 91 1012.7
20260501183446 41 32 0.0 0.0 0.00 0.35 0.35 91 1012.7
20260501182942 41 320 0.0 0.0 0.00 0.35 0.35 91 1012.6
20260501182439 41 277 0.0 0.0 0.00 0.35 0.35 91 1012.6
20260501181936 40 273 0.0 0.0 0.00 0.35 0.35 91 1012.6
20260501181433 41 332 0.0 1.0 0.00 0.35 0.35 92 1012.4
20260501180930 40 318 0.0 0.0 0.00 0.35 0.35 92 1012.4
20260501180427 40 281 0.0 0.0 0.00 0.35 0.35 92 1012.4
20260501175923 40 310 0.0 0.0 0.00 0.35 0.35 92 1012.4
20260501175421 40 274 1.0 3.0 0.00 0.35 0.35 92 1012.1
20260501174917 41 326 2.0 6.0 0.07 0.35 0.35 92 1012.1
20260501174415 41 8 1.0 2.0 0.07 0.35 0.35 92 1012.1
20260501173912 41 328 3.0 6.0 0.07 0.35 0.35 92 1012.2
20260501173410 41 288 0.0 0.0 0.00 0.34 0.34 92 1012.2
20260501172905 41 278 0.0 0.0 0.00 0.34 0.34 92 1012.0
20260501172400 42 350 3.0 8.0 0.00 0.34 0.34 91 1011.9
20260501171856 44 282 0.0 0.0 0.00 0.34 0.34 91 1012.0
20260501171353 44 282 0.0 0.0 0.05 0.34 0.34 91 1011.5
20260501170849 44 256 0.0 0.0 0.05 0.34 0.34 91 1011.6
20260501170346 44 252 0.0 0.0 0.00 0.33 0.33 91 1011.6
20260501165844 45 253 0.0 0.0 0.07 0.33 0.33 91 1011.7
20260501165342 44 253 0.0 0.0 0.14 0.33 0.33 91 1011.5
20260501164839 44 251 0.0 0.0 0.12 0.32 0.32 91 1011.5
20260501164337 45 239 0.0 0.0 0.05 0.31 0.31 91 1011.5
20260501163832 44 247 0.0 0.0 0.00 0.30 0.30 91 1011.7
20260501163329 45 240 0.0 0.0 0.07 0.30 0.30 91 1011.8
20260501162826 45 241 0.0 0.0 0.12 0.30 0.30 91 1011.7
20260501162323 44 239 0.0 0.0 0.12 0.29 0.29 91 1011.3
20260501161820 44 248 0.0 0.0 0.12 0.28 0.28 90 1011.8
20260501161317 45 243 0.0 0.0 0.05 0.27 0.27 90 1011.7
20260501160813 45 243 0.0 0.0 0.07 0.26 0.26 91 1011.8
20260501160310 45 243 0.0 0.0 0.07 0.26 0.26 90 1011.6
20260501155808 44 237 0.0 0.0 0.00 0.25 0.25 90 1011.6
20260501155306 44 242 0.0 0.0 0.05 0.25 0.25 90 1011.4
20260501154801 45 218 0.0 0.0 0.05 0.25 0.25 90 1011.6
20260501154258 44 250 0.0 0.0 0.00 0.24 0.24 91 1011.6
20260501153755 44 253 0.0 0.0 0.00 0.24 0.24 91 1011.6
20260501153253 44 247 0.0 0.0 0.00 0.24 0.24 91 1011.8
20260501152749 44 250 0.0 0.0 0.00 0.24 0.24 91 1011.8
20260501152246 44 243 0.0 0.0 0.00 0.24 0.24 90 1011.7
20260501151743 44 234 0.0 0.0 0.07 0.24 0.24 91 1011.5
20260501151239 44 236 0.0 0.0 0.07 0.24 0.24 91 1011.9
20260501150730 44 206 0.0 0.0 0.07 0.24 0.24 90 1011.7
20260501150226 43 223 0.0 0.0 0.05 0.23 0.23 90 1011.9
20260501145723 43 232 1.0 2.0 0.05 0.23 0.23 90 1011.7
20260501145220 43 251 0.0 0.0 0.12 0.22 0.22 90 1011.8
20260501144716 43 236 0.0 1.0 0.19 0.22 0.22 90 1012.1
20260501144212 44 225 0.0 0.0 0.19 0.20 0.20 90 1012.1
20260501143708 44 214 0.0 0.0 0.12 0.19 0.19 90 1011.9
20260501143206 44 238 0.0 0.0 0.05 0.18 0.18 90 1012.1